079  
ASUS41 KRLX 150510  
RWRRLX  
REGIONAL WEATHER ROUNDUP  
NATIONAL WEATHER SERVICE CHARLESTON WV  
100 AM EDT SUN SEP 15 2019  
 
NOTE: "FAIR" INDICATES FEW OR NO CLOUDS BELOW 12,000 FEET WITH NO  
SIGNIFICANT WEATHER AND/OR S TO VISIBILITY
.  
 
WVZ003-150600-  
NORTHERN PANHANDLE OF WEST VIRGINIA  
 
CITY SKY/WX TMP DP RH WIND PRES REMARKS
 
WHEELING FAIR 58 54 86 CALM 30.24S  

 
 
WVZ009-150600-  
NORTHWEST WEST VIRGINIA  
 
CITY SKY/WX TMP DP RH WIND PRES REMARKS
 
PARKERSBURG FAIR 56 53 90 CALM 30.27S  

 
 
WVZ006-150600-  
WESTERN WEST VIRGINIA  
 
CITY SKY/WX TMP DP RH WIND PRES REMARKS
 
HUNTINGTON FAIR 60 57 89 CALM 30.23S  

 
 
WVZ015-150600-  
WEST CENTRAL WEST VIRGINIA  
 
CITY SKY/WX TMP DP RH WIND PRES REMARKS
 
CHARLESTON FAIR 62 55 77 CALM 30.24S  

 
 
WVZ022-031-150600-  
NORTH CENTRAL WEST VIRGINIA  
 
CITY SKY/WX TMP DP RH WIND PRES REMARKS
 
MORGANTOWN FAIR 62 57 83 CALM 30.25S  
CLARKSBURG FAIR 59 54 83 CALM 30.24S  
BUCKHANNON FAIR 61 57 88 CALM 30.26S  

 
 
WVZ025-035-042-045-150600-  
SOUTHERN WEST VIRGINIA  
 
CITY SKY/WX TMP DP RH WIND PRES REMARKS
 
BECKLEY FAIR 65 51 60 CALM 30.28F  
LOGAN FAIR 66 54 63 CALM 30.26R  
PINEVILLE FAIR 62 59 88 MISG 30.29F  
BLUEFIELD FAIR 67 53 61 CALM 30.29F  
LEWISBURG FAIR 67 61 80 CALM 30.27S  

 
 
WVZ047-150600-  
NORTHERN MOUNTAINS OF WEST VIRGINIA  
 
CITY SKY/WX TMP DP RH WIND PRES REMARKS
 
ELKINS FAIR 57 54 89 CALM 30.27S  

 
 
WVZ052-150600-  
EASTERN PANHANDLE OF WEST VIRGINIA  
 
CITY SKY/WX TMP DP RH WIND PRES REMARKS
 
MARTINSBURG FAIR 66 65 96 CALM 30.16S FOG  
PETERSBURG FAIR 61 61 99 CALM 30.21S FOG  

 
 
SOUTHEAST OHIO/NORTHEAST KENTUCKY  
 
CITY SKY/WX TMP DP RH WIND PRES REMARKS
 
ATHENS FAIR 55 55 100 CALM 30.23F  
ASHLAND FAIR 57 57 100 CALM 30.24S FOG  

 
 
 
CLICK HERE TO GO TO PREVIOUS BULLETINS.

The Nexlab WV Page
The Nexlab OH Page
The Nexlab KY Page
The Nexlab VA Page Main Text Page